Location: Gleizolles
(44.4833°N, 6.7667°E)
Time: 16:35:58
(UTC+00:00)

Altair - Pass Details

Date: 04 July 2024
Orbit: 1502 x 1681 km, 47.2° (Epoch: 13 July)

Event Time Altitude Azimuth Distance (km) Brightness Sun altitude
Rises 00:25:46 0° 266° (W) 4,633 9.9 -21.8°
Reaches altitude 10° 00:28:47 10° 268° (W) 3,654 9.3 -21.7°
Maximum altitude 00:38:00 76° 355° (N) 1,560 7.6 -21.3°
Drops below altitude 10° 00:47:26 10° 82° (E) 3,739 9.8 -20.8°
Sets 00:50:33 0° 84° (E) 4,746 10.4 -20.6°
